Location: Tarleton Observatory
(32.2162°N, 98.0976°W)
Time: 02:16:55
(UTC-06:00)

Daily predictions for brighter satellites

Satellite Brightness Start Highest point End
(mag) Time Altitude Azimuth Time Altitude Azimuth Time Altitude Azimuth
Lacrosse 5 rocket 4.2 04:40:55 14° SE 04:40:55 14° SE 04:41:36 10° SE
H-2A R/B 4.1 04:44:06 28° S 04:47:33 44° SE 05:16:32 10° ENE
Cosmos 1980 Rocket 2.5 04:56:43 60° ENE 04:56:52 60° ENE 05:02:25 10° SSE
Haruka 4.2 04:57:41 41° S 04:59:01 49° SSE 05:13:07 10° ENE
IDEFIX/ARIANE 42P 4.3 05:06:39 10° NE 05:11:17 32° E 05:15:54 10° SSE
Cosmos 1536 Rocket 4.2 05:12:08 51° ENE 05:12:13 51° E 05:16:28 10° SSE
Timation 2 Rocket 4.0 05:13:32 63° WSW 05:14:16 68° WNW 05:21:09 10° NNE
COSMO-SKYMED 1 4.4 05:14:42 10° SE 05:18:28 29° ENE 05:21:52 12° NNE
OAO 2 Rocket 4.0 05:22:31 44° SSW 05:22:31 44° SSW 05:27:20 10° SE
Milstar 3 Cent rocket 4.3 05:22:54 24° SW 05:25:55 30° SSW 05:37:01 10° SE
CZ-2C R/B 3.7 05:23:11 10° SSE 05:27:35 76° ENE 05:28:33 54° N
USA 267 4.2 05:25:31 10° NNE 05:30:07 27° NNW 05:30:07 27° NNW
Meteor 2-4 Rocket 3.5 05:29:22 37° NNW 05:31:40 81° W 05:37:17 10° S
Okean 1 Rocket 3.4 05:28:39 10° S 05:32:57 63° E 05:37:18 10° NNE
GPS 2-05 Rocket1 3.6 05:37:01 47° SSE 05:37:01 47° SSE 05:40:10 10° E
Okean-O 2.7 05:32:30 10° NNE 05:36:56 74° ESE 05:41:21 10° S
Meteor 1-28 Rocket 4.3 05:33:34 10° S 05:35:42 32° S 05:35:42 32° S
APEX 4.0 05:34:51 13° S 05:37:21 43° ESE 05:40:55 10° NE
Cosmos 2279 Rocket 4.2 05:37:24 44° W 05:37:24 44° W 05:43:10 10° SSW
SL-16 R/B 3.2 05:33:34 12° N 05:38:38 43° ENE 05:43:59 10° SE
Meteor 1-4 Rocket 2.9 05:35:06 10° S 05:38:51 67° E 05:42:37 10° NNE
Aurora 2 Rocket 3.5 05:40:37 26° S 05:41:04 26° S 05:44:33 10° ESE
Cosmos 2322 Rocket 3.1 05:38:06 11° N 05:43:23 46° ENE 05:48:49 10° SE
CZ-4C R/B 3.1 05:47:02 28° NNW 05:47:02 28° NNW 05:50:49 10° N
ATLAS CENTAUR R/B 3.9 05:43:58 10° SSE 05:46:45 20° ESE 05:49:31 10° ENE
Cosmos 2360 4.4 05:45:35 40° WNW 05:47:04 51° WSW 05:52:33 10° S
EO 1 Del DPAF 3.8 05:45:54 10° SSE 05:49:37 56° ENE 05:52:46 14° N
SeaSat 1 3.8 05:51:35 10° N 05:53:48 21° NNW 05:53:48 21° NNW
PAYLOAD A 4.0 05:51:24 10° N 05:56:50 83° WNW 06:02:05 10° SSW
Cosmos 1697 Rocket 4.3 06:00:35 17° WSW 06:00:35 17° WSW 06:02:46 10° SW
Feng Yun 1-1 Rocket 4.2 05:53:29 10° N 05:59:09 62° WNW 06:04:39 10° SSW
USA 234 3.9 05:56:02 10° ESE 06:02:17 49° NE 06:08:08 12° NNW
CZ-2C R/B 2.4 05:58:50 10° NNE 06:03:36 80° ESE 06:08:14 10° S
Cosmos 1500 3.1 06:00:00 10° SSW 06:03:49 68° W 06:07:39 10° N
Landsat 4 3.9 06:01:52 10° S 06:05:30 48° W 06:06:52 32° NW
SKYMED 2 3.5 06:02:04 10° S 06:06:22 70° WSW 06:10:28 11° NNW
Cosmos 1833 4.3 06:03:56 10° SSW 06:09:30 80° ESE 06:15:06 10° NNE
Cosmos 1271 Rocket 4.3 06:15:36 10° SSE 06:19:05 37° E 06:22:34 10° NNE
Cosmos 389 Rocket 3.0 06:21:21 10° S 06:24:57 64° E 06:28:31 10° NNE
RESURS DK-1 4.2 06:25:29 14° WSW 06:25:29 14° WSW 06:27:28 10° SW
OAO 3 Copernicus 4.4 06:21:54 20° W 06:25:22 63° N 06:30:22 10° ENE
CZ-3A R/B 3.5 06:18:10 10° W 06:25:56 33° SSW 06:28:36 10° SE
Cosmos 1455 Rocket 3.9 06:24:00 10° S 06:28:19 55° E 06:32:41 10° NNE
GEOS 3 Rocket 3.7 06:25:13 10° NNE 06:30:38 86° ESE 06:35:57 10° SSW
Cosmos 1544 Rocket 4.0 06:28:18 10° S 06:32:43 69° E 06:37:09 10° NNE
Cosmos 1666 2.8 06:32:09 10° S 06:35:58 78° E 06:39:47 10° N
Cosmos 2285 Rocket 4.2 06:30:01 10° SW 06:36:05 49° WNW 06:42:10 10° N
COSMOS 2441 4.3 06:31:28 10° N 06:36:13 60° WNW 06:40:56 10° SSW
Cosmos 2360 Rocket 2.9 06:33:28 10° N 06:39:03 56° ENE 06:44:36 10° SE
SMAP 3.7 06:35:00 10° NNE 06:39:37 62° ESE 06:44:12 10° S
Cosmos 1680 Rocket 3.9 06:34:54 10° SW 06:39:43 38° WNW 06:44:35 10° N
Cosmos 1980 Rocket 3.8 06:38:33 12° W 06:40:13 14° W 06:43:00 10° SW
Cosmos 1025 Rocket 3.6 06:37:32 10° NNW 06:41:25 35° W 06:45:20 10° SSW
Cosmos 1066 Rocket 4.1 06:36:46 10° N 06:42:09 79° W 06:47:37 10° S
CZ-4 R/B 2.7 06:38:37 10° NNE 06:42:41 48° E 06:46:47 10° S
Okean 1-7 Rocket 3.9 06:39:40 10° NNW 06:44:03 48° W 06:48:25 10° SSW
IDEFIX/ARIANE 42P 3.5 06:46:31 10° NNW 06:50:40 25° WNW 06:54:49 10° WSW
COSMO-SKYMED 1 4.1 06:51:38 10° SW 06:54:35 18° W 06:57:34 10° NW
Cosmos 1975 3.8 06:53:16 10° SW 06:56:39 27° W 07:00:03 10° NNW
S3M 4.1 06:54:02 10° N 07:00:16 88° W 07:06:34 10° S
Cosmos 1371 Rocket 4.3 06:57:39 10° NNW 07:02:51 74° ENE 07:08:00 10° SSE
OE (NEXTSAT) 4.4 07:00:03 10° NW 07:03:37 87° SW 07:07:10 10° SE
Thor Agena Rocket 3.6 07:00:59 10° S 07:05:56 60° WSW 07:10:57 10° NNW
